Weather History for KMKL - June, 2012

Change the Weather History Date:

Tuesday, June 12, 2012

  Actual Average Record
Temperature  
Mean Temperature 74 °F 76 °F  
Max Temperature 83 °F 87 °F 99 °F (1953)
Min Temperature 64 °F 65 °F 47 °F (1980)
Degree Days  
Heating Degree Days 0 0  
Month to date heating degree days 2 0  
Since 1 June heating degree days 2 0  
Since 1 July heating degree days 2773 3572  
Cooling Degree Days 9 11  
Month to date cooling degree days 83 113  
Year to date cooling degree days 477 328  
Since 1 June cooling degree days 83 113  
Growing Degree Days 24 (Base 50)    
Moisture  
Dew Point 67 °F    
Average Humidity 79    
Maximum Humidity 100    
Minimum Humidity 58    
Precipitation  
Precipitation 0.00 in 0.17 in 2.36 in (1989)
Month to date precipitation 3.02 2.12  
Year to date precipitation 15.94 25.66  
Snow  
Snow 0.00 in 0.00 in - ()
Month to date snowfall 0.0 0.0  
Since 1 June snowfall 0.0 0.0  
Since 1 July snowfall 3.3 4.6  
Snow Depth 0.00 in    
Sea Level Pressure  
Sea Level Pressure 30.04 in    
Wind  
Wind Speed 4 mph (West)    
Max Wind Speed 12 mph    
Max Gust Speed 16 mph    
Visibility 10 miles    
Events      
T = Trace of Precipitation, MM = Missing Value Source: NWS Daily Summary

Daily Weather History Graph

Daily Weather History Graph

Search for Another Location

Airport or City:

Trip Planner

Search our weather history database for the weather conditions in past years. The results will help you decide how hot, cold, wet, or windy it might be!

Date:

Astronomy

Jun. 12, 2012 Rise Set
Actual Time 5:39 AM CDT 8:11 PM CDT
Civil Twilight 5:09 AM CDT 8:41 PM CDT
Nautical Twilight 4:32 AM CDT 9:19 PM CDT
Astronomical Twilight 3:51 AM CDT 10:00 PM CDT
Moon 1:14 AM CDT (6/12) 2:10 PM CDT (6/12)
Length of Visible Light 15h 32m
Length of Day
14h 32m
Last Quarter, 38% of the Moon is Illuminated
Jun 12
Last Quarter
Jun 19
New
Jun 26
First Quarter
Jul 3
Full
Jul 10
Last Quarter

Hourly Weather History & Observations

Time (CDT) Temp. Heat Index Dew Point Humidity Pressure Visibility Wind Dir Wind Speed Gust Speed Precip Events Conditions
12:53 AM 66.0 °F - 64.9 °F 96% 29.98 in 10.0 mi SSW 3.5 mph - N/A   Overcast
1:53 AM 66.9 °F - 66.0 °F 97% 29.97 in 10.0 mi Calm Calm - N/A   Overcast
2:53 AM 66.9 °F - 64.9 °F 93% 29.96 in 10.0 mi Calm Calm - N/A   Overcast
3:53 AM 68.0 °F - 66.0 °F 93% 29.99 in 9.0 mi Calm Calm - N/A   Overcast
4:02 AM 66.2 °F - 66.2 °F 100% 29.99 in 10.0 mi Calm Calm - N/A   Overcast
4:23 AM 66.2 °F - 66.2 °F 100% 30.00 in 10.0 mi NW 3.5 mph - N/A   Overcast
4:53 AM 66.9 °F - 66.0 °F 97% 29.99 in 10.0 mi Calm Calm - N/A   Overcast
5:53 AM 66.9 °F - 66.0 °F 97% 30.01 in 8.0 mi SSW 3.5 mph - N/A   Overcast
6:29 AM 68.0 °F - 66.2 °F 94% 30.02 in 7.0 mi Calm Calm - N/A   Overcast
6:53 AM 68.0 °F - 66.9 °F 96% 30.03 in 9.0 mi Calm Calm - N/A   Overcast
7:53 AM 70.0 °F - 68.0 °F 93% 30.05 in 10.0 mi WSW 4.6 mph - N/A   Scattered Clouds
8:37 AM 71.6 °F - 68.0 °F 88% 30.08 in 10.0 mi West 4.6 mph - N/A   Overcast
8:53 AM 71.1 °F - 68.0 °F 90% 30.08 in 9.0 mi West 5.8 mph - N/A   Overcast
9:45 AM 73.4 °F - 69.8 °F 88% 30.10 in 10.0 mi West 6.9 mph - N/A   Mostly Cloudy
9:53 AM 73.9 °F - 68.0 °F 82% 30.09 in 10.0 mi West 9.2 mph - N/A   Mostly Cloudy
10:00 AM 73.4 °F - 68.0 °F 83% 30.10 in 10.0 mi West 8.1 mph - N/A   Scattered Clouds
10:17 AM 73.4 °F - 68.0 °F 83% 30.10 in 10.0 mi West 8.1 mph - N/A   Mostly Cloudy
10:37 AM 75.2 °F - 68.0 °F 78% 30.10 in 10.0 mi WSW 8.1 mph - N/A   Overcast
10:53 AM 75.9 °F - 69.1 °F 79% 30.09 in 10.0 mi West 8.1 mph - N/A   Overcast
11:43 AM 75.2 °F - 69.8 °F 83% 30.09 in 10.0 mi West 8.1 mph - N/A   Overcast
11:53 AM 77.0 °F - 69.1 °F 76% 30.08 in 10.0 mi West 9.2 mph - N/A   Overcast
12:01 PM 78.8 °F - 69.8 °F 74% 30.09 in 10.0 mi WSW 10.4 mph - N/A   Mostly Cloudy
12:10 PM 77.0 °F - 68.0 °F 74% 30.09 in 10.0 mi West 10.4 mph - N/A   Overcast
12:17 PM 77.0 °F - 68.0 °F 74% 30.09 in 10.0 mi West 11.5 mph - N/A   Overcast
12:53 PM 78.1 °F - 68.0 °F 71% 30.06 in 10.0 mi West 9.2 mph - N/A   Mostly Cloudy
1:53 PM 80.1 °F 82.7 °F 68.0 °F 67% 30.05 in 10.0 mi NW 8.1 mph - N/A   Partly Cloudy
2:53 PM 81.0 °F 84.1 °F 69.1 °F 67% 30.03 in 10.0 mi NNW 8.1 mph - N/A   Partly Cloudy
3:53 PM 82.0 °F 85.5 °F 69.1 °F 65% 30.01 in 10.0 mi NNW 8.1 mph - N/A   Scattered Clouds
4:53 PM 82.0 °F 84.1 °F 66.0 °F 58% 30.00 in 10.0 mi NNW 8.1 mph - N/A   Scattered Clouds
5:53 PM 80.1 °F 82.1 °F 66.0 °F 62% 29.99 in 10.0 mi NNW 6.9 mph - N/A   Clear
6:53 PM 78.1 °F - 66.0 °F 66% 30.00 in 10.0 mi NNW 5.8 mph - N/A   Clear
7:53 PM 75.9 °F - 66.0 °F 71% 30.00 in 10.0 mi Calm Calm - N/A   Clear
8:53 PM 72.0 °F - 66.9 °F 84% 30.01 in 10.0 mi NNW 3.5 mph - N/A   Clear
9:53 PM 69.1 °F - 66.0 °F 90% 30.05 in 10.0 mi Calm Calm - N/A   Clear
10:53 PM 69.1 °F - 66.0 °F 90% 30.06 in 10.0 mi Calm Calm - N/A   Clear
11:53 PM 64.9 °F - 64.0 °F 97% 30.05 in 2.5 mi Calm Calm - N/A   Clear